This demonstration page uses our WeatherBlox Daily Observations layout. Learn more.

Left ArrowRight Arrow

39.08367, -84.50855

Hourly Observations for March 7, 2019

Temp ( °F °C ) Dew Point ( °F °C ) Humidity (%) Winds ( mph kmh ) Pressure ( in mb ) Visibility ( mi km ) Precip ( " mm )
12:53 am 00:53 Clear 25 -3.9 12 -11.1 58 58 SW 7 11 30.35 1028 10 16 N/A
1:53 am 01:53 Clear 24 -4.4 12 -11.1 60 60 SW 7 11 30.36 1028 10 16 N/A
2:53 am 02:53 Clear 23 -5 13 -10.6 65 65 SSW 8 13 30.35 1028 10 16 N/A
3:53 am 03:53 Clear 23 -5 13 -10.6 65 65 SSW 6 9 30.35 1028 10 16 N/A
4:53 am 04:53 Clear 25 -3.9 13 -10.6 60 60 SW 7 11 30.37 1029 10 16 N/A
5:53 am 05:53 Clear 25 -3.9 14 -10 63 63 SW 5 7 30.39 1029 10 16 N/A
6:53 am 06:53 Clear 26 -3.3 15 -9.4 63 63 SW 7 11 30.41 1030 10 16 N/A
7:53 am 07:53 Sunny 27 -2.8 15 -9.4 61 61 SSW 5 7 30.42 1030 10 16 N/A
8:53 am 08:53 Sunny 30 -1.1 15 -9.4 54 54 VRB 6 9 30.43 1030 10 16 N/A
9:53 am 09:53 Sunny 31 -0.6 15 -9.4 52 52 SW 5 7 30.43 1031 10 16 N/A
10:53 am 10:53 Sunny 33 0.6 15 -9.4 47 47 SSW 3 6 30.42 1030 10 16 N/A
11:53 am 11:53 Sunny 35 1.7 15 -9.4 44 44 NNW 3 6 30.42 1030 10 16 N/A
12:53 pm 12:53 Sunny 37 2.8 16 -8.9 42 42 VRB 3 6 30.40 1030 10 16 N/A
1:53 pm 13:53 Sunny 38 3.3 16 -8.9 41 41 N N/A 30.37 1029 10 16 N/A
2:53 pm 14:53 Sunny 39 3.9 16 -8.9 39 39 NW 5 7 30.36 1028 10 16 N/A
3:53 pm 15:53 Sunny 39 3.9 16 -8.9 39 39 N 5 7 30.35 1028 10 16 N/A
4:53 pm 16:53 Cloudy 39 3.9 16 -8.9 39 39 N N/A 30.35 1028 10 16 N/A
5:53 pm 17:53 Cloudy 38 3.3 17 -8.3 43 43 N N/A 30.33 1027 10 16 N/A
6:53 pm 18:53 Cloudy 37 2.8 19 -7.2 48 48 NE 3 6 30.33 1027 10 16 N/A
7:53 pm 19:53 Cloudy 35 1.7 17 -8.3 48 48 NE 6 9 30.34 1027 10 16 N/A
8:53 pm 20:53 Cloudy 34 1.1 17 -8.3 50 50 N N/A 30.33 1027 10 16 N/A
9:53 pm 21:53 Cloudy 31 -0.6 26 -3.3 82 82 SSW 6 9 30.33 1027 10 16 N/A
10:48 pm 22:48 Cloudy 32 undefined 27 -3 80 80 S 7 11 30.35 1028 10 16 N/A
10:53 pm 22:53 Cloudy 31 -0.6 27 -2.8 85 85 SSW 7 11 30.33 1027 10 16 N/A
11:42 pm 23:42 Cloudy 31 -0.6 27 -2.8 85 85 S 5 7 30.33 1027 10 16 N/A
11:53 pm 23:53 Cloudy 31 -0.6 27 -2.8 85 85 S 5 7 30.31 1027 10 16 N/A

Powered by AerisWeather